Location: Bellerive
(46.9237°N, 7.0223°E)
Time: 17:02:00
(UTC+00:00)

Nadezhda 3 Rocket - Pass Details

Date: 09 April 2020
Orbit: 956 x 1000 km, 82.9° (Epoch: 01 June)

Event Time Altitude Azimuth Distance (km) Brightness Sun altitude
Exits shadow 21:41:21 53° 235° (SW) 1,197 4.3 -29.7°
Maximum altitude 21:42:32 63° 282° (WNW) 1,094 4.3 -29.8°
Drops below altitude 10° 21:48:47 10° 3° (N) 2,742 7.0 -30.4°
Sets 21:51:20 0° 7° (N) 3,687 7.8 -30.6°
